Theta_e
301 302 302 303 303 304 304 305 306 306 306 307 307 308 309 309 311 312 314 322 324 328 333 338 343 345 348 349 349 348 346 343 344 347 349 350 351 352 353 353 353 353 352
301 301 301 302 302 303 303 304 305 305 304 305 307 307 307 308 310 311 312 312 320 325 329 332 339 344 347 347 348 345 342 340 345 348 348 347 348 350 353 353 353 352 351
301 300 301 301 302 303 303 304 305 305 304 305 305 306 306 307 308 308 309 309 312 321 325 329 334 339 343 345 347 349 347 344 345 346 349 347 347 347 350 352 353 352 351
302 301 301 301 302 303 303 303 302 303 302 302 302 304 305 305 306 307 307 308 309 312 318 325 329 335 339 341 343 348 347 348 344 345 346 347 346 346 347 350 351 351 350
305 301 301 302 303 302 302 302 301 300 300 301 303 304 304 303 303 307 306 309 308 312 314 322 328 330 337 338 341 343 345 345 346 341 343 346 346 346 346 348 350 350 349
304 301 301 302 302 302 301 301 300 301 300 300 303 302 303 302 302 303 307 312 313 311 314 318 317 323 333 336 338 340 341 343 344 343 340 336 338 343 346 348 349 350 351
304 301 301 302 302 301 300 301 300 299 299 300 296 301 299 305 302 305 309 309 311 313 316 321 320 321 324 333 338 340 340 344 343 343 340 338 338 340 341 347 349 348 350
304 303 302 302 302 301 301 300 299 298 298 300 296 296 296 297 301 304 307 308 309 311 318 320 321 324 323 324 330 338 339 341 343 341 339 337 337 339 339 343 345 348 348
304 303 304 303 302 301 300 299 300 298 297 298 299 297 298 297 299 300 305 307 307 309 313 316 319 322 325 327 328 330 336 338 342 344 341 335 335 338 338 341 343 345 346
304 306 306 305 302 301 300 300 303 299 297 296 298 301 299 304 299 297 302 304 307 308 311 315 315 319 323 325 328 330 332 334 339 340 341 338 337 339 339 341 343 344 346
305 307 305 304 303 302 301 301 300 300 298 300 302 298 296 299 303 301 298 300 305 308 312 313 314 316 320 323 325 329 331 333 334 336 338 339 339 340 342 343 344 343 346
303 304 305 303 303 302 301 301 300 300 299 298 299 298 297 300 300 301 299 301 302 306 308 312 312 312 315 318 324 325 325 326 327 330 333 335 337 339 341 342 344 344 348
301 303 302 302 301 301 301 301 299 299 299 298 297 297 301 303 304 304 303 302 301 305 308 311 311 312 314 315 319 320 322 321 322 323 327 332 334 335 338 339 341 343 346
301 302 303 302 302 301 301 300 298 299 299 299 300 299 298 303 299 305 303 301 299 303 306 306 311 310 311 314 317 318 316 318 318 318 320 325 330 330 332 332 333 337 340
303 304 303 301 300 298 298 298 299 299 298 299 302 298 298 299 300 302 304 304 302 298 301 305 305 309 309 311 314 311 314 318 317 316 316 318 321 324 328 328 330 332 334
301 302 302 300 299 298 297 296 297 299 298 299 300 298 298 300 299 303 304 304 304 302 300 306 306 307 307 309 313 309 311 314 315 315 314 314 315 316 317 319 322 325 330
302 302 303 301 299 297 296 296 297 299 299 298 299 298 299 299 300 303 303 304 303 304 301 305 306 306 305 305 306 307 309 308 312 314 314 312 312 312 312 313 314 316 319
302 303 303 301 300 297 295 296 298 299 299 299 299 298 303 304 302 303 304 304 304 305 303 303 303 303 303 304 304 304 306 308 308 312 313 312 311 310 310 310 310 310 310
302 302 302 301 299 297 295 296 298 300 300 300 298 298 300 299 299 302 303 304 304 305 305 304 302 304 303 303 303 304 304 304 305 309 308 309 310 310 310 309 308 307 306
302 302 302 301 300 297 296 296 297 301 304 299 298 298 299 298 298 298 303 303 304 304 305 302 302 301 302 302 302 301 300 302 301 303 305 306 306 308 308 308 308 308 306
303 303 303 302 303 300 298 298 298 298 303 299 297 297 299 303 307 306 304 303 304 303 303 302 301 300 300 300 299 301 301 302 302 301 300 300 301 302 303 305 306 306 305
302 302 302 302 304 303 302 303 302 298 303 298 297 295 296 300 303 305 307 306 306 303 301 300 300 299 300 300 300 300 299 298 298 303 299 296 299 299 302 302 304 304 304
301 301 301 301 304 301 301 301 303 297 296 302 300 294 295 297 301 298 303 305 304 305 306 302 300 300 300 301 301 299 300 300 299 300 299 296 299 297 299 302 303 302 302
301 300 301 301 302 300 302 299 300 295 299 301 302 299 294 294 298 298 300 300 300 300 302 302 302 303 303 303 303 303 304 303 299 301 301 294 296 295 297 298 301 301 301
303 300 301 300 299 298 301 299 297 294 294 301 303 302 301 298 300 300 295 295 297 300 304 305 304 304 304 303 304 305 303 300 298 298 297 294 293 291 292 291 297 300 300
304 304 302 299 301 297 299 298 297 293 292 296 299 300 302 300 299 299 293 292 293 296 295 301 303 304 303 304 305 305 303 302 301 301 303 296 292 292 290 292 291 292 294
Wind_Speed
4 3 4 4 4 4 4 4 5 5 4 4 5 5 5 6 6 4 3 16 16 16 17 18 17 20 19 20 21 18 11 13 19 22 20 20 22 22 22 21 20 19 18
4 4 4 4 4 4 4 4 4 4 5 5 5 6 6 5 6 6 4 6 17 17 18 18 18 18 20 19 24 20 25 16 27 27 23 24 24 23 23 22 21 20 19
5 4 4 4 4 4 6 5 4 4 4 5 7 8 7 7 6 6 6 6 7 15 17 19 17 18 18 21 23 26 26 25 25 23 21 24 25 24 24 23 21 22 21
5 4 4 4 4 4 4 4 4 4 4 4 5 7 7 7 7 7 5 5 5 6 12 20 19 18 18 18 22 25 23 23 22 28 25 25 25 25 25 23 22 21 21
5 4 4 4 5 4 4 4 3 2 4 6 7 8 7 5 5 6 7 6 6 5 4 14 21 20 19 18 20 22 21 20 27 19 17 24 28 25 25 23 21 21 21
4 4 4 5 4 4 4 5 4 3 3 4 7 8 7 4 3 3 5 6 5 7 6 8 8 8 18 19 20 20 22 24 23 22 12 6 10 22 24 23 22 21 21
4 4 4 5 5 4 5 5 4 4 3 3 3 5 4 3 2 6 5 6 9 9 8 6 4 6 6 18 19 21 21 21 22 25 24 19 22 29 23 24 22 22 21
4 3 3 4 5 4 6 5 4 4 3 3 3 3 5 5 3 3 5 7 9 7 9 8 8 2 4 3 8 21 21 23 24 21 21 23 21 27 29 24 23 24 23
6 5 4 3 4 3 4 4 3 4 3 3 3 1 4 3 9 3 4 7 9 7 8 8 8 5 3 2 5 7 14 20 24 28 26 26 29 29 31 29 28 24 23
6 5 5 4 4 4 5 4 3 2 2 4 3 1 3 3 3 7 3 7 9 7 9 8 7 7 5 1 1 7 13 14 19 25 25 26 31 34 36 36 31 26 24
4 5 5 5 4 3 4 5 5 4 1 2 2 3 2 3 3 3 7 11 6 4 5 8 5 7 7 5 4 8 4 11 15 19 22 23 30 31 31 29 29 26 25
4 5 5 5 5 4 5 5 4 4 4 3 3 2 2 2 4 3 4 8 7 5 8 5 6 8 7 5 9 15 15 14 11 10 13 16 17 22 23 24 26 28 29
2 5 5 6 4 5 5 5 4 5 4 3 3 3 2 3 2 3 4 6 3 3 3 3 6 6 7 5 7 14 19 18 17 15 9 12 16 16 18 21 25 31 33
4 4 5 4 5 6 6 5 3 4 5 4 5 4 3 3 2 3 3 5 5 2 2 3 2 4 5 5 12 16 9 18 18 18 18 11 14 12 12 12 14 26 31
4 5 4 4 4 6 6 6 3 5 4 4 5 4 3 3 3 4 3 3 4 3 2 4 5 7 7 7 10 8 8 16 17 18 18 18 16 9 5 5 7 20 34
3 5 5 4 5 6 6 6 4 4 5 4 3 5 4 3 4 4 3 3 3 2 3 0 2 3 5 5 10 9 10 14 19 17 18 18 17 17 16 16 14 8 6
4 5 4 4 4 6 6 6 5 5 6 5 5 5 6 5 4 4 4 4 3 2 3 0 2 3 4 4 7 7 7 8 8 19 19 20 20 21 20 22 20 20 17
4 4 4 4 4 5 6 6 6 6 5 5 6 6 6 4 6 5 5 6 4 4 2 1 1 3 3 3 4 5 6 6 6 17 20 20 20 22 23 23 23 23 23
3 4 3 3 4 5 6 6 6 6 6 5 5 5 6 6 6 6 6 7 5 3 3 1 2 2 2 3 2 4 5 5 6 13 15 19 20 20 22 22 23 24 25
3 4 4 4 3 5 5 6 6 6 5 5 5 5 5 6 6 6 6 7 7 4 2 4 2 2 2 2 2 3 3 3 4 5 11 14 16 20 21 22 22 22 22
4 4 5 5 4 4 4 6 6 6 5 6 6 6 5 9 14 9 4 6 7 5 3 3 2 1 1 2 2 1 1 1 3 3 4 6 6 7 9 15 16 20 19
4 4 5 5 5 3 7 11 9 5 5 4 5 6 6 9 11 13 10 10 8 4 3 2 1 0 0 0 0 1 1 2 2 2 2 4 4 6 6 6 16 17 16
3 5 6 5 5 4 6 9 10 5 5 4 4 5 6 5 9 7 10 8 7 8 6 1 1 0 0 1 1 0 1 0 0 2 1 2 3 4 4 5 12 12 12
4 4 4 4 4 5 5 7 8 6 5 4 3 4 4 6 6 7 6 5 5 4 4 2 1 1 1 2 1 1 2 1 1 1 1 2 2 3 2 3 9 8 10
3 3 3 5 4 5 6 7 5 5 6 5 4 4 4 4 8 9 6 6 6 5 6 4 1 1 1 2 3 2 2 1 1 2 1 3 0 1 2 2 3 8 7
3 3 4 4 3 3 6 7 5 2 4 4 5 5 6 6 7 7 4 4 5 5 6 5 2 1 2 3 5 3 2 2 1 2 3 3 2 2 2 1 2 2 3
Wind_Direction
42 20 8 10 5 353 355 345 341 337 325 316 304 300 296 292 284 281 273 300 296 289 289 285 270 265 249 228 207 202 230 204 238 222 209 209 216 202 197 200 198 197 197
36 20 12 6 357 351 333 329 324 326 322 322 317 304 293 277 275 281 275 284 292 281 275 281 278 265 247 237 226 208 208 230 233 221 207 208 215 215 201 199 199 200 200
40 29 12 356 346 339 335 343 331 325 333 328 317 316 307 298 292 283 280 269 273 277 270 267 273 266 245 243 237 235 232 214 241 236 216 216 211 216 212 202 202 203 201
39 24 9 358 338 345 337 333 325 322 321 312 302 306 306 308 308 300 279 273 268 276 275 272 267 266 251 239 246 239 240 233 246 267 237 224 217 216 219 209 206 206 206
17 14 357 344 347 340 338 332 320 332 325 327 323 312 306 294 298 311 298 300 274 274 274 269 260 256 251 240 241 242 239 228 224 228 259 230 225 223 223 217 210 208 208
2 4 348 346 353 341 337 336 325 328 292 298 318 309 303 298 285 299 307 332 315 312 289 267 258 249 248 240 243 244 247 242 223 226 205 249 263 260 237 228 219 213 209
338 336 333 333 342 352 325 333 322 332 316 324 319 319 303 323 194 334 330 345 339 334 308 316 274 240 236 240 239 239 246 239 225 226 216 174 216 242 271 236 224 220 214
322 316 331 332 327 326 338 336 346 327 295 324 326 311 338 333 309 334 343 342 344 331 334 338 329 306 236 230 247 238 238 237 232 203 186 188 216 230 252 258 240 222 215
323 324 325 323 329 319 315 311 320 346 308 304 351 245 331 349 326 309 337 338 338 336 333 334 335 337 4 212 241 262 258 243 233 222 209 194 206 229 248 260 250 234 225
337 339 338 327 329 323 337 318 321 287 312 312 332 293 252 283 325 319 319 333 335 338 339 335 343 339 337 341 334 260 258 261 241 228 226 218 217 207 223 241 243 232 224
343 337 340 326 319 319 324 333 344 338 315 291 300 322 305 297 254 275 308 328 325 336 332 323 338 359 349 1 20 20 344 262 255 244 230 229 224 229 238 241 231 231 226
331 331 332 322 317 330 331 323 325 336 327 315 304 299 249 301 315 308 300 312 309 318 325 357 357 10 347 352 46 45 43 33 5 297 243 241 241 247 237 230 233 231 228
317 313 332 331 319 320 329 331 333 336 332 317 325 296 275 270 274 278 290 302 304 287 294 16 6 11 340 347 40 48 45 39 33 25 352 250 234 242 242 246 244 232 224
289 291 290 309 339 347 337 334 331 315 340 335 322 319 295 297 293 281 292 316 317 298 288 18 33 0 330 9 37 42 34 45 40 37 26 8 227 224 234 252 275 247 224
290 307 327 332 341 350 344 339 323 336 344 318 322 318 301 301 314 297 283 286 296 315 317 0 356 8 356 351 42 18 28 47 48 46 41 36 44 53 201 229 292 276 214
310 314 335 335 343 344 344 342 335 319 340 327 312 327 326 305 325 306 298 289 292 287 288 249 72 3 335 356 39 23 26 33 47 49 52 49 51 52 52 54 51 11 216
308 316 309 318 342 345 348 340 333 332 338 332 336 331 317 326 316 316 308 290 279 262 268 158 77 14 18 12 20 21 18 20 32 51 51 49 44 46 52 49 45 38 33
307 297 302 320 346 350 344 343 329 330 331 344 337 341 326 341 327 312 316 310 286 263 249 230 94 37 29 355 21 30 21 21 26 36 46 52 51 48 41 44 42 45 40
307 311 302 317 337 342 344 336 322 322 319 357 353 342 334 340 327 327 327 326 317 278 202 232 83 54 24 13 5 32 23 13 23 37 38 39 45 49 50 45 43 40 35
289 293 281 281 304 327 339 339 334 325 337 356 351 346 341 338 325 325 329 334 341 351 74 97 81 64 32 353 39 47 25 7 12 21 35 42 39 45 46 45 45 45 44
269 278 282 271 283 324 342 335 337 323 341 344 356 346 338 344 349 347 333 344 356 10 53 67 75 79 7 351 33 38 355 29 26 4 27 30 30 27 36 41 45 45 47
278 279 281 277 298 308 327 342 348 339 341 348 342 340 338 351 343 348 348 14 21 14 23 31 35 12 222 76 350 65 360 357 356 325 52 26 31 35 33 35 53 51 49
266 277 281 291 287 287 333 344 351 351 339 312 349 344 338 341 349 342 344 23 18 26 40 14 342 340 312 195 168 49 345 18 34 245 83 47 22 44 22 47 55 58 61
257 268 282 281 267 270 300 351 356 347 326 336 330 339 341 336 338 350 340 359 349 352 360 357 330 335 252 161 178 331 306 339 14 265 48 88 357 29 13 24 58 61 55
255 259 262 283 272 320 348 351 356 349 341 344 349 320 335 341 341 360 5 353 336 328 334 345 320 287 203 216 267 303 349 172 253 243 182 111 89 77 10 12 12 70 87
256 289 304 285 285 306 354 356 5 347 338 334 332 333 334 342 342 354 8 348 342 316 334 335 18 2 246 256 266 263 278 265 263 297 169 118 156 136 23 10 12 21 42